Location: Morrison Observatory
(41.7012°N, 86.2315°W)
Time: 20:12:05
(UTC-04:00)

Daily predictions for brighter satellites

Satellite Brightness Start Highest point End
(mag) Time Altitude Azimuth Time Altitude Azimuth Time Altitude Azimuth
Cosmos 2322 Rocket 4.2 21:48:23 10° NW 21:52:53 25° WSW 21:57:22 10° SSW
Cosmos 2322 4.1 21:52:19 10° NNW 21:58:00 68° WSW 22:03:38 10° SSE
deb Chang Zheng 4 3.6 21:54:39 10° NNE 21:58:57 61° ESE 22:03:15 10° S
ATLAS 2AS CENTAUR R/B 4.0 21:53:24 10° SSE 21:58:58 23° ESE 22:04:51 10° ENE
Sich 1 4.2 21:55:59 10° SE 21:59:39 26° E 22:03:19 10° NNE
Cosmos 2360 Rocket 2.7 21:54:30 10° NNW 22:00:05 63° WSW 22:05:40 10° S
Cosmos 1151 Rocket 3.2 21:56:47 10° N 22:01:08 78° W 22:05:28 10° S
Cosmos 1271 Rocket 4.4 21:59:27 10° NNE 22:02:21 20° ENE 22:05:17 10° ESE
Cosmos 1328 3.8 21:59:37 10° S 22:03:32 67° E 22:07:29 10° NNE
ATLAS 3B R/B 4.3 22:00:19 10° NNW 22:06:03 25° NE 22:11:30 10° E
SL-16 R/B 4.5 22:02:26 10° NW 22:06:34 21° W 22:10:41 10° SSW
ERS-1 Rocket 3.2 22:02:06 10° S 22:07:07 74° WSW 22:12:11 10° NNW
Cosmos 1633 Rocket 4.0 22:03:38 10° SSE 22:07:25 30° E 22:11:13 10° NNE
ERBS 3.2 22:04:51 10° S 22:07:54 28° SE 22:10:57 10° ENE
YAOGAN 6 3.9 22:05:08 10° SE 22:08:10 25° ENE 22:11:09 10° NNE
Envisat 3.0 22:09:27 10° SSE 22:14:31 79° ENE 22:19:37 10° N
Cosmos 1674 3.9 22:11:43 10° SSW 22:15:25 45° WNW 22:19:10 10° N
SL-14 R/B 3.6 22:15:24 10° SSE 22:19:12 46° E 22:23:04 10° NNE
NOSS 3-1 (C) 3.5 22:15:20 10° SSW 22:21:12 90° NW 22:27:45 10° NE
USA 245 3.9 22:21:00 13° ESE 22:22:05 17° ENE 22:23:41 10° NNE
Meteor 1-27 4.3 22:17:26 10° N 22:23:06 69° E 22:28:40 10° SSE
Cosmos 1805 Rocket 3.5 22:20:37 10° S 22:25:04 81° E 22:29:31 10° N
PSLV R/B 3.2 22:23:16 12° SSE 22:25:59 65° ENE 22:29:00 10° N
Cosmos 220 Rocket 4.4 22:24:32 10° S 22:28:43 45° ESE 22:32:58 10° NNE
Cosmos 2227 Rocket 2.8 22:24:54 10° SSE 22:29:57 35° ESE 22:35:02 10° NE
Cosmos 1300 2.7 22:28:13 10° N 22:32:05 89° E 22:35:46 11° S
Cosmos 1937 Rocket 3.6 22:27:15 10° S 22:32:19 53° ESE 22:37:23 10° NNE
MetOp-A 4.1 22:30:23 11° SSE 22:35:35 78° ENE 22:40:57 10° N
Cosmos 990 Rocket 4.4 22:33:27 10° S 22:38:15 42° ESE 22:43:05 10° NNE
H-2A R/B 3.3 22:37:43 10° S 22:42:00 42° W 22:46:18 10° NNW
Cosmos 292 Rocket 3.7 22:37:35 10° NNW 22:42:22 78° ENE 22:46:00 17° SSE
Meteor 2-11 Rocket 4.5 22:36:45 10° N 22:42:55 89° E 22:48:55 11° S
Cosmos 1707 Rocket 3.8 22:39:40 10° NNW 22:44:01 71° W 22:48:17 11° S
SPOT 5 3.1 22:40:04 10° S 22:44:41 69° WSW 22:49:35 10° NNW
SL-16 R/B 3.7 22:41:59 10° N 22:46:38 25° NE 22:50:40 12° ESE
Cosmos 1666 Rocket 3.7 22:43:45 10° S 22:48:09 78° W 22:52:36 10° N
Cosmos 2298 Rocket 4.4 22:43:34 10° SSW 22:48:51 67° WNW 22:54:10 10° NNE
ARGOS 3.3 22:44:45 17° SSE 22:48:54 61° ENE 22:54:13 10° N
CZ-4B R/B 3.5 22:43:47 10° NNE 22:49:02 67° ESE 22:54:08 10° S
Meteor 1-11 4.5 22:44:46 10° SSW 22:50:31 75° W 22:56:15 10° N
Cosmos 2333 Rocket 2.4 22:45:56 10° NNW 22:51:40 65° ENE 22:55:43 20° SE
Cosmos 1455 3.1 22:50:39 10° N 22:54:11 34° ENE 22:55:49 23° ESE
OTV 4 1.2 22:51:46 10° SW 22:54:28 31° S 22:54:46 31° SSE
Hubble Space Telescope 2.9 22:54:17 10° SSW 22:54:58 11° S 22:54:58 11° S
Cosmos 1241 Rocket 4.4 22:50:03 10° SSW 22:56:09 66° ESE 23:02:22 10° NE
Cosmos 1726 2.6 22:52:25 10° NNW 22:56:09 58° W 22:59:13 14° S
Cosmos 2297 Rocket 2.7 22:51:53 14° S 22:56:22 40° ESE 23:01:36 10° NE
Cosmos 1346 3.5 22:57:45 32° SE 22:58:37 41° E 23:01:30 10° NNE
Cosmos 2219 Rocket 2.2 22:53:31 10° NNW 22:59:09 85° WSW 23:03:06 20° SSE
DELTA 2 R/B(2) 3.5 22:57:34 10° WSW 22:59:18 52° S 22:59:30 49° SSE
Landsat 7 4.3 22:57:59 22° SE 23:00:44 45° ENE 23:05:17 10° N
Cosmos 1470 Rocket 3.6 22:59:12 20° SSE 23:01:59 57° E 23:06:14 10° NNE
Cosmos 1933 Rocket 3.7 23:00:00 20° SSE 23:02:53 57° E 23:07:17 10° NNE
Meteor 2-10 4.2 22:57:38 10° N 23:03:24 81° E 23:07:31 20° SSE
COSMOS 2428 3.8 22:58:10 10° NW 23:03:24 39° WSW 23:08:25 11° S
Meteor 1-4 Rocket 2.9 23:00:56 10° NNW 23:04:38 63° W 23:06:57 21° S
NOSS 0 Rocket 3.9 22:59:11 10° NNW 23:05:22 87° WSW 23:09:35 22° SSE
Lacrosse 4 Rocket 2.8 23:02:37 10° N 23:06:33 30° NE 23:08:55 19° E
SL-08 RB Rocket 3.6 23:05:02 24° SSE 23:07:41 75° ENE 23:12:12 10° N
Nadezhda 1 Rocket 4.0 23:02:06 10° N 23:08:12 68° E 23:12:18 22° SSE
Terra 2.3 23:14:21 26° SE 23:16:36 46° ENE 23:21:08 10° N
COSMOS 2455 3.3 23:12:26 10° NNW 23:18:19 52° NE 23:21:50 24° ESE
H-2A R/B 2.4 23:15:25 26° SE 23:18:22 57° ENE 23:23:43 10° N
Cosmos 1745 Rocket 4.0 23:16:53 12° S 23:22:48 81° W 23:29:00 10° N
Cosmos 1980 3.7 23:17:58 10° NNW 23:23:37 76° WSW 23:26:49 27° SSE
Tiangong 1 1.2 23:21:00 10° W 23:24:05 69° N 23:25:23 31° ENE
Cosmos 1125 Rocket 3.8 23:23:43 28° SSE 23:26:13 49° ESE 23:31:21 10° NNE
Cosmos 1709 Rocket 4.2 23:27:43 28° SSE 23:30:46 52° E 23:36:40 10° NNE
SPOT 1/Viking Rocket 4.3 23:27:31 18° SSW 23:31:09 47° W 23:36:08 10° NNW
Spot 4 4.3 23:29:24 31° SE 23:31:23 50° ENE 23:36:05 10° N
Cosmos 2237 Rocket 2.4 23:29:39 10° NNW 23:35:19 66° WSW 23:38:17 29° S
Cosmos 1900 4.3 23:31:42 10° NNW 23:36:42 74° ENE 23:38:38 37° SE
OAO 2 Rocket 3.9 23:31:55 10° WSW 23:36:53 40° S 23:38:02 36° SSE
Cosmos 1869 3.3 23:33:51 10° N 23:37:55 84° W 23:39:13 42° S
Cosmos 389 Rocket 4.1 23:35:15 10° NNE 23:38:02 21° ENE 23:38:11 21° ENE
Cosmos 1271 Rocket 4.5 23:35:08 10° NW 23:38:24 27° W 23:40:46 15° SW
Cosmos 1626 2.4 23:36:48 30° SSW 23:38:29 65° W 23:42:15 10° N
Cosmos 1386 Rocket 4.4 23:36:10 19° SSW 23:40:35 80° W 23:46:39 10° N
Cosmos 2082 4.1 23:36:15 10° SW 23:41:55 64° WNW 23:47:38 10° NNE
Cosmos 1862 Rocket 3.9 23:39:01 10° NNW 23:43:18 60° W 23:45:04 33° SSW
CARTOSAT-1 3.5 23:42:07 42° SSE 23:43:33 89° W 23:47:53 10° NNW
ERBS 4.5 23:41:35 10° W 23:44:42 30° NW 23:47:49 10° NNE
ATLAS 2AS CENTAUR R/B 3.1 23:41:34 10° SW 23:49:06 79° NW 23:57:14 10° NNE
IGS 5A 3.4 23:50:56 49° S 23:52:01 84° WSW 23:56:13 10° NNW
CZ-4C R/B 4.0 23:52:05 33° SW 23:52:52 39° W 23:56:10 10° NNW
